MST,Max TemperatureF,Mean TemperatureF,Min TemperatureF,Max Dew PointF,MeanDew PointF,Min DewpointF,Max Humidity, Mean Humidity, Min Humidity, Max Sea Level PressureIn, Mean Sea Level PressureIn, Min Sea Level PressureIn, Max VisibilityMiles, Mean VisibilityMiles, Min VisibilityMiles, Max Wind SpeedMPH, Mean Wind SpeedMPH, Max Gust SpeedMPH,PrecipitationIn, CloudCover, Events, WindDirDegrees
2010-11-1,56,38,19,26,17,12,84,52,19,30.52,30.34,30.18,10,10,10,20,5,26,0.00,1,,319
2010-11-2,65,39,12,27,18,9,80,50,20,30.68,30.49,30.35,10,10,10,13,4,16,0.00,0,,345
2010-11-3,60,40,19,31,25,17,85,58,31,30.56,30.47,30.41,10,10,10,18,4,22,0.00,0,,179
2010-11-4,59,37,15,29,24,16,92,60,28,30.58,30.40,30.27,10,10,10,8,3,10,0.00,0,,261
2010-11-5,63,39,14,23,19,10,88,54,20,30.45,30.30,30.16,10,10,10,8,3,12,0.00,0,,281
2010-11-6,65,41,17,25,19,13,84,51,17,30.41,30.28,30.17,10,10,10,8,3,10,0.00,0,,113
2010-11-7,63,42,20,24,17,11,81,47,13,30.29,30.15,30.02,10,10,10,22,7,35,0.00,0,,232
2010-11-8,64,41,18,29,17,13,77,46,14,30.12,29.90,29.65,10,10,10,29,9,36,0.00,0,,214
2010-11-9,47,33,19,27,17,5,78,48,17,29.89,29.71,29.57,10,10,10,26,13,32,0.00,2,,243
2010-11-10,45,25,4,13,7,2,92,56,19,30.09,29.98,29.85,10,10,10,20,5,22,0.00,1,,180
2010-11-11,43,26,9,21,13,3,92,60,27,30.34,30.16,29.99,10,10,10,17,5,22,0.00,2,,146
2010-11-12,43,23,3,22,7,-2,92,56,20,30.45,30.35,30.26,10,10,10,10,3,14,0.00,1,,295
2010-11-13,44,23,1,12,5,-5,79,51,22,30.49,30.26,30.11,10,10,10,17,6,24,0.00,0,,313
2010-11-14,38,21,4,11,8,-1,87,60,32,30.20,30.03,29.86,10,10,10,13,4,18,0.00,2,,277
2010-11-15,46,28,10,21,13,5,83,54,25,30.08,29.88,29.77,10,10,10,25,6,31,T,3,,277
2010-11-16,53,28,2,25,13,-1,87,54,21,30.12,29.90,29.65,10,9,2,35,11,44,T,1,,233
2010-11-17,44,26,8,16,9,0,84,53,22,30.48,30.25,29.92,10,10,10,25,5,35,0.00,0,,354
2010-11-18,51,27,2,10,4,-3,80,49,17,30.60,30.40,30.18,10,10,10,8,2,10,0.00,0,,314
2010-11-19,59,34,8,10,3,-4,73,42,10,30.33,30.11,29.93,10,10,10,20,6,26,0.00,0,,247
2010-11-20,58,35,12,12,6,2,59,35,10,30.12,29.91,29.72,10,10,10,28,11,35,0.00,0,,214
2010-11-21,47,39,31,32,24,12,85,59,32,29.76,29.69,29.61,10,8,1,37,22,47,0.02,3,Snow,225
2010-11-22,35,21,6,21,7,1,75,50,25,30.21,29.92,29.68,10,10,10,36,14,47,0.00,1,,249
2010-11-23,43,20,-3,12,5,-7,95,57,19,30.31,30.03,29.62,10,10,10,35,11,44,0.00,0,,218
2010-11-24,38,26,13,16,11,2,88,59,29,29.83,29.67,29.56,10,10,10,31,16,39,0.00,1,,239
2010-11-25,29,13,-4,-3,-10,-13,59,38,17,30.45,30.17,29.83,10,10,10,17,7,21,0.00,0,,358
2010-11-26,40,17,-6,4,-4,-13,75,49,22,30.62,30.45,30.21,10,10,10,8,3,9,0.00,0,,259
2010-11-27,50,23,-4,9,2,-12,75,47,19,30.40,30.14,29.78,10,10,10,20,4,23,0.00,0,,199
2010-11-28,39,21,3,17,7,-3,86,55,23,29.75,29.61,29.48,10,10,10,37,12,46,T,1,,203
2010-11-29,33,17,0,13,3,-4,88,57,26,30.28,29.98,29.68,10,10,10,22,8,29,0.00,1,,355
2010-11-30,31,12,-8,0,-7,-12,83,52,21,30.60,30.48,30.18,10,10,10,10,4,12,0.00,0,,189